Miscellaneous Local Product
Issued by NWS Hastings, NE

Home | Current Version | Previous Version | Graphics & Text | Print | Product List | Glossary On
Versions: 1 2 3 4 5 6 7 8 9 10 11 12 13 14 15 16 17 18 19 20 21 22 23 24 25 26 27 28 29 30 31 32 33 34 35 36 37 38 39 40 41 42 43 44 45 46 47 48 49 50
000
AXUS43 KGID 010302
MISGRI

GID CWA HOURLY WEATHER ROUNDUP
NATIONAL WEATHER SERVICE HASTINGS NE
1000 PM CDT SAT APR 30 2016

NOTE: "FAIR" INDICATES FEW OR NO CLOUDS BELOW 12,000 FEET WITH NO
SIGNIFICANT WEATHER AND/OR OBSTRUCTIONS TO VISIBILITY.

...SOUTH CENTRAL NEBRASKA...

CITY           SKY/WX    TMP DP  RH WIND       PRES   REMARKS
GRAND ISLAND   LGT RAIN  46  45  96 N9        29.87R FOG
HASTINGS       CLOUDY    45  43  93 NW10      29.86R
KEARNEY        CLOUDY    43  39  87 NW12      29.89R
ORD            LGT RAIN  43  41  93 NE16      29.91R
YORK           LGT RAIN  46  46 100 NE12      29.84R
AURORA         CLOUDY    47  47  98 NE10      29.86R
LEXINGTON      DRIZZLE   39  36  91 N13       29.92R WCI  31
HOLDREGE       CLOUDY    40  38  91 NW10G17   29.90R WCI  34
HEBRON         CLOUDY    49  46  88 NW7       29.85R

...NEBRASKA PANHANDLE...

CITY           SKY/WX    TMP DP  RH WIND       PRES   REMARKS
CHADRON        LGT RAIN  42  35  76 NE12      30.15R
ALLIANCE       MIX PCPN  34  33  96 N17       30.09R WCI  23
SCOTTSBLUFF    CLOUDY    38  38 100 N13       30.15R WCI  30
SIDNEY         LGT SNOW  34  32  92 N23       30.08R FOG     WCI  22

...WESTERN AND NORTH CENTRAL NEBRASKA...

CITY           SKY/WX    TMP DP  RH WIND       PRES   REMARKS
VALENTINE      LGT RAIN  39  36  89 NE25G36   30.07R WCI  28
AINSWORTH      LGT RAIN  38  37  95 NE23G35   30.03R WCI  28
ONEILL         LGT RAIN  42  40  94 NE22      29.98R
BROKEN BOW     LGT RAIN  41  39  93 N16G28    29.92R
IMPERIAL       LGT RAIN  35  33  92 N18       30.00R FOG     WCI  24
NORTH PLATTE   CLOUDY    35  33  92 N15       29.96R WCI  25
MCCOOK         CLOUDY    38  34  85 N14       29.95R WCI  30

...EASTERN NEBRASKA...

CITY           SKY/WX    TMP DP  RH WIND       PRES   REMARKS
NORFOLK        LGT RAIN  43  41  93 NE15      29.91R FOG
SO SIOUX CITY  LGT RAIN  46  42  86 NE22G30   29.93R
TEKAMAH        CLOUDY    48  45  89 NE15      29.88R
COLUMBUS       CLOUDY    46  37  71 NE15      29.87R
ALBION         RAIN      43  42  94 NE14G22   29.90R
OMAHA EPPLEY   LGT RAIN  50  47  89 E17       29.85R
OFFUTT AFB     LGT RAIN  50  50 100 NE8       29.83R
MILLARD        DRIZZLE   50  48  93 NE5       29.84R
LINCOLN        LGT RAIN  51  49  92 NE7       29.85R FOG
NEBRASKA CITY  CLOUDY    52  52 100 CALM      29.83R
BEATRICE       CLOUDY    51  47  86 SW7       29.84R
FALLS CITY     CLOUDY    56  49  77 W7        29.83R

...NORTHERN KANSAS...

CITY           SKY/WX    TMP DP  RH WIND       PRES   REMARKS
GOODLAND       CLOUDY    35  33  92 N21G31    29.98R WCI  24
HILL CITY      CLOUDY    42  37  82 NW10      29.94R
NORTON         CLOUDY    39  34  81 NW14G20   29.92R WCI  31
PHILLIPSBURG   CLOUDY    45  39  81 NW14      29.91R
SMITH CENTER   CLOUDY    45  41  87 NW8       29.90R
BELOIT         CLOUDY    46  41  81 W7        29.88R
HAYS           CLOUDY    45  32  61 NW12      29.91R
RUSSELL        CLOUDY    46  39  76 NW15      29.89R
CONCORDIA      CLOUDY    49  44  83 W7        29.87R
SALINA         CLOUDY    52  44  74 W7        29.89R
TOPEKA         MOCLDY    56  47  71 W5        29.85R



USA.gov is the U.S. government's official web portal to all federal, state and local government web resources and services.